Tracking 22124 objects as of 25-Jan-2021
HD Live streaming from Space Station
objects crossing your sky now

STARLINK-1861

Track STARLINK-1861 now!
10-day predictions
STARLINK-1861 is classified as:


NORAD ID: 47148
Int'l Code: 2020-088AC
Perigee: 385.5 km
Apogee: 388.0 km
Inclination: 53.1 °
Period: 92.1 minutes
Semi major axis: 6757 km
RCS: Unknown
Launch date: November 25, 2020
Source: United States (US)
Launch site: AIR FORCE EASTERN TEST RANGE (AFETR)
aabbcc
Your satellite tracking list
Your tracking list is empty




NASA's NSSDC Master Catalog

Two Line Element Set (TLE):
1 47148U 20088AC  21025.25001157 -.00074608  00000-0 -81547-3 0  9998
2 47148  53.0556  52.9508 0001806  46.7940 314.4146 15.62782990 10333
Source of the keplerian elements: AFSPC